[[{"header":{"parameterUnit":"m.s-1","parameterCategory":1,"la1":30.2991,"la2":30.254,"lo1":-89.0895,"lo2":-89.0444,"dy":0.0017,"dx":0.0017,"nx":28,"ny":28,"refTime":"2024-09-01T09:00:00:Z","depth":0,"parameterNumber":2,"parameterNumberName":"U-component_of_WINDS"},"data":[0,0,0,0,0,0,0,0,0,0,0,0,0,0,0,0,0,0,0,0,0,0,0,0,0,0,0,0,0,0,0,0,0,0,0,0,0,0,0,0,0,0,0,0,0,0,0,0,0,0,0,0,0,0,0,0,0,0,-2.9621,-2.9621,0,-2.9603,-2.9603,-2.9603,-2.9442,-2.9438,-2.9434,-2.9431,-2.9415,-2.9418,-2.9422,0,0,0,0,0,0,0,0,0,0,0,0,0,-2.952,-2.9522,-2.9621,-2.9621,-2.9621,-2.9603,-2.9603,-2.9603,-2.9443,-2.9438,-2.9433,-2.9429,-2.9414,-2.9418,-2.9422,0,0,0,0,0,0,0,0,0,0,0,0,0,-2.9539,-2.9523,-2.9622,-2.9539,-2.9531,-2.9603,-2.9603,-2.9603,-2.9444,-2.9438,-2.9432,-2.9427,-2.9413,-2.9418,-2.9423,-2.9573,0,0,-2.9438,-2.944,0,0,0,0,0,0,0,0,-2.9538,-2.9543,-2.9551,-2.9545,-2.9537,-2.9519,-2.9561,-2.9593,-2.9446,-2.9478,-2.9431,-2.9424,-2.9455,-2.9456,-2.9466,-2.9572,-2.9572,-2.9438,-2.9441,-2.9443,-2.9445,0,0,0,0,0,0,0,-2.9537,-2.9543,-2.9614,-2.9552,-2.9543,-2.9504,-2.95,-2.9567,-2.95,-2.9474,-2.9463,-2.9462,-2.945,-2.9461,-2.9464,-2.9571,-2.9438,-2.9442,-2.9445,-2.9447,-2.9801,-2.9807,0,0,0,0,0,0,-2.9547,-2.9543,-2.9615,-2.9614,-2.9523,-2.951,-2.9506,-2.9531,-2.9499,-2.9488,-2.9468,-2.9455,-2.9456,-2.9459,-2.9463,-2.9637,-2.9443,-2.9448,-2.9451,-2.9794,-2.9802,-2.9809,0,0,0,0,0,0,-2.9545,-2.9555,-2.9616,-2.9575,-2.958,-2.9518,-2.9548,-2.9534,-2.9545,-2.9494,-2.9481,-2.9492,-2.9451,-2.9456,-2.9547,-2.9635,-2.945,-2.9455,-2.9787,-2.9797,-2.9805,-2.9987,0,0,0,0,0,0,-2.9543,-2.9555,-2.9611,-2.9578,-2.9583,-2.97,-2.9553,-2.9538,-2.9554,-2.9537,-2.9513,-2.9503,-2.9447,-2.954,-2.9552,-2.9638,-2.9459,-2.9778,-2.9791,-2.9802,-2.9973,-3.0002,-3.0027,0,0,0,0,0,-2.954,-2.9664,-2.9615,-2.9625,-2.9651,-2.9705,-2.9708,-2.9639,-2.9562,-2.9618,-2.9585,-2.9504,-2.9623,-2.9551,-2.9562,-2.9652,-2.9773,-2.9788,-2.9801,-2.9961,-2.9996,-3.0026,0,0,0,0,0,0,-2.9711,-2.9658,-2.9603,-2.972,-2.9718,-2.9678,-2.9747,-2.9679,-2.97,-2.9683,-2.9598,-2.9594,-2.9698,-2.9683,-2.9604,-2.9796,-2.9684,-2.9701,-2.9802,-2.9834,-2.9861,-2.9862,-2.9463,0,0,0,0,0,-2.9762,-2.9809,-2.976,-2.9868,-2.987,-2.9809,-2.983,-2.9777,-2.9772,-2.9771,-2.9744,-2.9743,-2.978,-2.9806,-2.9837,-2.997,-2.9963,-3.0037,-3.0064,-3.0086,-3.0102,-3.0172,-3.0205,-2.9856,-2.9856,-2.9856,0,0,-2.9868,-2.9845,-2.988,-2.9902,-2.9894,-2.9946,-2.9809,-2.9869,-2.9907,-2.978,-2.9864,-2.9845,-2.9838,-2.995,-2.9999,-2.9941,-3.0197,-3.0104,-3.0122,-3.0127,-3.019,-3.0223,-3.0253,-2.9866,-2.9864,-2.9863,0,0,-3.0088,-3.0076,-3.0164,-3.0159,-3.0148,-3.0107,-3.0128,-3.0098,-3.008,-3.0163,-3.0068,-3.0112,-3.0177,-3.0176,-3.0185,-3.0404,-3.0331,-3.0417,-3.0557,-3.0625,-3.0653,-3.0677,-3.0756,-3.0785,-3.0433,-3.0433,-3.0434,0,-3.0222,-3.0295,-3.0218,-3.0284,-3.0297,-3.0183,-3.0272,-3.0271,-3.0272,-3.0284,-3.0219,-3.0299,-3.0286,-3.0397,-3.0451,-3.0461,-3.0483,-3.0419,-3.0655,-3.0678,-3.0699,-3.0774,-3.0804,-3.0444,-3.0443,-3.0442,-3.0441,0,-3.046,-3.0513,-3.0585,-3.0588,-3.0608,-3.0686,-3.0621,-3.0652,-3.0597,-3.0563,-3.0649,-3.0629,-3.0655,-3.0677,-3.0625,-3.0781,-3.0746,-3.067,-3.0556,-3.0744,-3.0813,-3.0841,-3.0459,-3.0455,-3.0452,-3.0449,0,0,-3.0789,-3.0747,-3.0775,-3.0775,-3.0755,-3.0794,-3.0867,-3.0891,-3.0919,-3.0923,-3.0982,-3.104,-3.0969,-3.0979,-3.0925,-3.0986,-3.1162,-3.0902,-3.09,-3.0952,-3.1333,-3.1392,-3.1426,-3.1113,-3.1118,-3.1122,-3.1334,0,-3.1001,-3.1122,-3.1054,-3.1185,-3.1232,-3.1125,-3.1188,-3.1183,-3.1153,-3.1189,-3.1156,-3.1198,-3.1101,-3.1106,-3.1161,-3.1129,-3.1237,-3.1112,-3.1168,-3.1171,-3.1174,-3.1462,-3.1523,-3.1725,-3.1361,-3.1365,-3.1368,0,-3.1265,-3.128,-3.1415,-3.1386,-3.1403,-3.1462,-3.1478,-3.1513,-3.1506,-3.148,-3.1491,-3.1422,-3.1492,-3.1379,-3.1474,-3.1391,-3.141,-3.1397,-3.1403,-3.1407,-3.1282,-3.1474,-3.1787,-3.1818,-3.141,-3.1406,-3.1403,0,-3.1492,-3.1546,-3.1633,-3.1637,-3.1605,-3.1648,-3.1637,-3.1623,-3.1642,-3.1656,-3.1668,-3.1691,-3.1704,-3.1724,-3.1664,-3.1587,-3.1768,-3.165,-3.1749,-3.1751,-3.1793,-3.1791,-3.2115,-3.1804,-3.1804,-3.1803,-3.1802,0,-3.1737,-3.1824,-3.1735,-3.1789,-3.1884,-3.1806,-3.1902,-3.1879,-3.1868,-3.1916,-3.1825,-3.1872,-3.179,-3.183,-3.1783,-3.187,-3.1876,-3.1858,-3.1845,-3.1867,-3.187,-3.1879,-3.1864,-3.1811,-3.1809,-3.1808,-3.1806,0,-3.2007,-3.195,-3.2039,-3.2001,-3.1994,-3.2065,-3.2033,-3.2082,-3.2045,-3.2108,-3.2118,-3.2061,-3.2103,-3.2045,-3.2081,-3.205,-3.2169,-3.2134,-3.2172,-3.2162,-3.2265,-3.2257,-3.2607,-3.2649,-3.2311,-3.2314,-3.2317,0,-3.2167,-3.2231,-3.22,-3.2225,-3.2219,-3.2262,-3.228,-3.2205,-3.2228,-3.2224,-3.2274,-3.2308,-3.2332,-3.2404,-3.2366,-3.2394,-3.2359,-3.248,-3.2363,-3.2383,-3.2362,-3.236,-3.2366,-3.2505,-3.2509,-3.2512,-3.2515,0,-3.2458,-3.2427,-3.2456,-3.2476,-3.25,-3.2512,-3.2518,-3.2544,-3.2466,-3.2497,-3.2538,-3.2556,-3.2592,-3.2628,-3.2645,-3.2634,-3.2563,-3.2552,-3.2576,-3.26,-3.262,-3.2611,-3.2238,-3.2544,-3.2541,-3.2539,-3.2538,-3.2537,-3.2678,-3.273,-3.2717,-3.2752,-3.2748,-3.2756,-3.28,-3.2768,-3.2801,-3.2824,-3.2778,-3.2832,-3.2822,-3.2838,-3.2835,-3.2876,-3.2824,-3.286,-3.2869,-3.2879,-3.2895,-3.2612,-3.2879,-3.2878,-3.2877,-3.2877,-3.2876,0,-3.2965,-3.295,-3.2984,-3.2994,-3.3023,-3.2951,-3.2953,-3.2982,-3.303,-3.3027,-3.3051,-3.3099,-3.3133,-3.3098,-3.3125,-3.3165,-3.3133,-3.3175,-3.3172,-3.3171,-3.294,-3.2916,-3.32,-3.32,-3.32,-3.32,-3.32,-3.32,-3.3117,-3.3202,-3.317,-3.3252,-3.3237,-3.3287,-3.3295,-3.3302,-3.3299,-3.3356,-3.3383,-3.3359,-3.3344,-3.3369,-3.3397,-3.3386,-3.3401,-3.3455,-3.3433,-3.3218,-3.3187,-3.3156,-3.3134,-3.3459,-3.3459,-3.3659,-3.3661,-3.3663]},{"header":{"parameterUnit":"m.s-1","parameterCategory":1,"la1":30.2991,"la2":30.254,"lo1":-89.0895,"lo2":-89.0444,"dy":0.0017,"dx":0.0017,"nx":28,"ny":28,"refTime":"2024-09-01T09:00:00:Z","depth":0,"parameterNumber":3,"parameterNumberName":"V-component_of_WINDS"},"data":[0,0,0,0,0,0,0,0,0,0,0,0,0,0,0,0,0,0,0,0,0,0,0,0,0,0,0,0,0,0,0,0,0,0,0,0,0,0,0,0,0,0,0,0,0,0,0,0,0,0,0,0,0,0,0,0,0,0,-1.975,-1.9751,0,-1.9833,-1.9834,-1.9835,-1.9842,-1.9841,-1.9841,-1.984,-1.9923,-1.9926,-1.9929,0,0,0,0,0,0,0,0,0,0,0,0,0,-1.9596,-1.9599,-1.975,-1.9751,-1.9752,-1.9833,-1.9834,-1.9835,-1.9842,-1.9841,-1.984,-1.9839,-1.9922,-1.9925,-1.9929,0,0,0,0,0,0,0,0,0,0,0,0,0,-1.9669,-1.96,-1.975,-1.9766,-1.9768,-1.9833,-1.9834,-1.9835,-1.9843,-1.9841,-1.984,-1.9839,-1.9921,-1.9925,-1.993,-1.9984,0,0,-1.9944,-1.9945,0,0,0,0,0,0,0,0,-1.9665,-1.9675,-1.9762,-1.9765,-1.9767,-1.9826,-1.981,-1.9885,-1.9843,-1.9814,-1.984,-1.9838,-1.9892,-1.9898,-1.9917,-1.9988,-1.9992,-1.9944,-1.9947,-1.9949,-1.995,0,0,0,0,0,0,0,-1.966,-1.9671,-1.9783,-1.9763,-1.9767,-1.9768,-1.9777,-1.9824,-1.9859,-1.9817,-1.9817,-1.9827,-1.9893,-1.9912,-1.9919,-1.9993,-1.9944,-1.9948,-1.9951,-1.9952,-2.0112,-2.0113,0,0,0,0,0,0,-1.9652,-1.9667,-1.978,-1.9785,-1.9712,-1.9772,-1.9782,-1.9808,-1.9859,-1.9865,-1.9828,-1.9827,-1.9905,-1.9914,-1.9922,-1.9988,-1.9949,-1.9953,-1.9955,-2.011,-2.0112,-2.0114,0,0,0,0,0,0,-1.9649,-1.9662,-1.9777,-1.9726,-1.9741,-1.9776,-1.9806,-1.9811,-1.9831,-1.9868,-1.9874,-1.9842,-1.9905,-1.9915,-1.9968,-1.9991,-1.9955,-1.9959,-2.0108,-2.0111,-2.0113,-2.0121,0,0,0,0,0,0,-1.9644,-1.9661,-1.9683,-1.9727,-1.9744,-1.9823,-1.9807,-1.9813,-1.9839,-1.9838,-1.9882,-1.9888,-1.9904,-1.9962,-1.9973,-1.9997,-1.9963,-2.0106,-2.0109,-2.0112,-2.0119,-2.0123,-2.0127,0,0,0,0,0,-1.9639,-1.9681,-1.9684,-1.9697,-1.9772,-1.9824,-1.9834,-1.9852,-1.984,-1.9862,-1.9886,-1.9887,-1.9987,-1.9967,-1.998,-2.0005,-2.0105,-2.0109,-2.0112,-2.0117,-2.0123,-2.0127,0,0,0,0,0,0,-1.9638,-1.9688,-1.969,-1.9749,-1.9782,-1.9825,-1.9853,-1.9857,-1.9894,-1.9892,-1.9913,-1.9923,-1.9974,-1.9995,-1.9972,-2.006,-2.0045,-2.0051,-2.0044,-2.005,-2.0054,-2.0047,-1.9966,0,0,0,0,0,-1.9645,-1.9684,-1.9725,-1.9772,-1.9789,-1.9818,-1.9842,-1.9853,-1.9888,-1.9902,-1.993,-1.9963,-2.0002,-2.0027,-2.0065,-2.0122,-2.0131,-2.0146,-2.015,-2.0153,-2.0158,-2.0189,-2.0195,-2.0125,-2.0125,-2.0125,0,0,-1.9659,-1.9691,-1.9714,-1.9773,-1.98,-1.9839,-1.983,-1.9872,-1.9901,-1.9908,-1.996,-1.9981,-2.002,-2.0075,-2.0101,-2.0094,-2.018,-2.0158,-2.016,-2.0163,-2.0193,-2.02,-2.0205,-2.0127,-2.0126,-2.0126,0,0,-1.9705,-1.9733,-1.9775,-1.9803,-1.9844,-1.9863,-1.9873,-1.9916,-1.9931,-1.9983,-1.9989,-2.0023,-2.009,-2.0118,-2.014,-2.0196,-2.0198,-2.0207,-2.0228,-2.0258,-2.0264,-2.0269,-2.0287,-2.0294,-2.0212,-2.0212,-2.0212,0,-1.9717,-1.9777,-1.9796,-1.9838,-1.9863,-1.9873,-1.9915,-1.994,-1.9992,-2.0009,-2.0001,-2.0085,-2.0111,-2.0172,-2.0186,-2.0204,-2.0216,-2.0202,-2.0261,-2.0267,-2.0272,-2.029,-2.0297,-2.0213,-2.0213,-2.0213,-2.0213,0,-1.9789,-1.983,-1.9859,-1.9909,-1.9938,-1.998,-2.0005,-2.0031,-2.004,-2.006,-2.0112,-2.0145,-2.0189,-2.0205,-2.0214,-2.0267,-2.0261,-2.0257,-2.0242,-2.0279,-2.0296,-2.0303,-2.0214,-2.0214,-2.0214,-2.0214,0,0,-1.9836,-1.9896,-1.9906,-1.9928,-1.9975,-2.0007,-2.0049,-2.0093,-2.0114,-2.015,-2.0185,-2.0241,-2.0238,-2.0263,-2.0275,-2.0301,-2.0342,-2.0294,-2.0295,-2.0301,-2.0401,-2.0403,-2.0411,-2.0344,-2.0346,-2.0347,-2.0398,0,-1.9885,-1.9961,-1.998,-2.0044,-2.0082,-2.0091,-2.0127,-2.0159,-2.0179,-2.0213,-2.0234,-2.0274,-2.0266,-2.0282,-2.0308,-2.0331,-2.0362,-2.0328,-2.0376,-2.0377,-2.0365,-2.042,-2.0423,-2.0469,-2.0405,-2.0406,-2.0407,0,-1.9953,-1.999,-2.0058,-2.0099,-2.0116,-2.0148,-2.0189,-2.0223,-2.0259,-2.0271,-2.03,-2.0309,-2.0352,-2.0336,-2.0395,-2.0371,-2.0392,-2.0406,-2.0409,-2.0413,-2.0393,-2.0425,-2.0484,-2.0491,-2.0418,-2.0417,-2.0416,0,-1.9979,-2.0046,-2.0095,-2.0114,-2.0163,-2.0186,-2.0207,-2.0242,-2.0267,-2.0303,-2.0319,-2.036,-2.0382,-2.0412,-2.0432,-2.0419,-2.0489,-2.0475,-2.05,-2.0499,-2.0513,-2.0512,-2.0576,-2.0529,-2.0529,-2.0529,-2.0528,0,-2.0032,-2.0073,-2.0107,-2.0137,-2.0183,-2.0204,-2.0248,-2.027,-2.0301,-2.0335,-2.0346,-2.0377,-2.0402,-2.0436,-2.0452,-2.0498,-2.0508,-2.0519,-2.0522,-2.0517,-2.0515,-2.053,-2.0527,-2.053,-2.053,-2.053,-2.0529,0,-2.0068,-2.0093,-2.0147,-2.0189,-2.0201,-2.0232,-2.0268,-2.0297,-2.0317,-2.036,-2.0371,-2.0402,-2.0443,-2.0466,-2.0518,-2.0529,-2.0579,-2.0582,-2.0567,-2.0568,-2.0592,-2.0589,-2.0666,-2.0677,-2.0624,-2.0624,-2.0625,0,-2.0099,-2.0131,-2.0177,-2.02,-2.0222,-2.026,-2.0286,-2.0308,-2.0334,-2.0377,-2.0401,-2.0443,-2.0477,-2.0543,-2.0569,-2.0609,-2.0612,-2.0636,-2.0617,-2.0611,-2.061,-2.0608,-2.0611,-2.0639,-2.0639,-2.064,-2.064,0,-2.0152,-2.0163,-2.02,-2.0241,-2.0271,-2.0304,-2.0337,-2.0355,-2.0383,-2.0411,-2.0454,-2.0481,-2.0534,-2.0575,-2.0616,-2.0638,-2.0643,-2.0646,-2.0654,-2.0648,-2.0638,-2.0642,-2.0575,-2.0644,-2.0643,-2.0643,-2.0643,-2.0643,-2.0186,-2.0214,-2.0251,-2.0291,-2.0318,-2.0349,-2.0378,-2.0402,-2.0438,-2.0482,-2.0493,-2.0538,-2.0573,-2.0629,-2.0652,-2.0686,-2.0682,-2.0693,-2.0696,-2.0698,-2.0698,-2.0633,-2.0694,-2.0694,-2.0694,-2.0694,-2.0694,0,-2.0238,-2.0262,-2.0299,-2.0345,-2.0377,-2.038,-2.0416,-2.0442,-2.0481,-2.0514,-2.0548,-2.0596,-2.0636,-2.0666,-2.0707,-2.0728,-2.0732,-2.0738,-2.0736,-2.0741,-2.07,-2.0689,-2.0735,-2.0735,-2.0735,-2.0735,-2.0735,-2.0735,-2.0269,-2.0317,-2.0332,-2.0392,-2.0416,-2.046,-2.048,-2.0508,-2.0534,-2.0588,-2.0621,-2.0641,-2.0672,-2.0715,-2.0751,-2.0759,-2.0773,-2.0779,-2.0787,-2.0748,-2.0744,-2.0739,-2.0729,-2.0782,-2.0782,-2.0824,-2.0824,-2.0825]}]]